This demonstration page uses our WeatherBlox Daily Observations layout. Learn more.

Hourly Observations for March 10, 2016

Temp ( °F °C ) Dew Point ( °F °C ) Humidity (%) Winds ( mph kmh ) Pressure ( in mb ) Visibility ( mi km ) Precip ( " mm )
12:15 am 00:15 Mostly Cloudy 47 8.1 42 5.5 84 84 NE 8 13 30.06 1018 10 16.0934 0 0
12:35 am 00:35 Partly Cloudy 46 7.6 42 5.4 86 86 ENE 3 6 30.09 1019 10 16.0934 0 0
12:55 am 00:55 Clear 45 7.3 42 5.5 88 88 E 6 9 30.09 1019 10 16.0934 0 0
1:15 am 01:15 Clear 44 6.9 41 5.2 89 89 ESE 7 11 30.09 1019 10 16.0934 0 0
1:35 am 01:35 Partly Cloudy 44 6.5 41 5.1 91 91 SE 7 11 30.09 1019 10 16.0934 0 0
1:55 am 01:55 Partly Cloudy 43 6.1 40 4.7 91 91 SE 6 9 30.12 1020 10 16.0934 0 0
2:15 am 02:15 Partly Cloudy 44 6.4 41 5 91 91 SSE 5 7 30.12 1020 10 16.0934 0 0
2:35 am 02:35 Mostly Cloudy 44 6.9 41 5.1 88 88 Calm 30.12 1020 10 16.0934 0 0
2:55 am 02:55 Cloudy 45 7 41 5.1 88 88 S 3 6 30.09 1019 10 16.0934 0 0
3:15 am 03:15 Cloudy 46 7.6 41 5 84 84 SSW 6 9 30.09 1019 10 16.0934 0 0
3:35 am 03:35 Mostly Cloudy 46 7.6 41 4.9 83 83 SSW 5 7 30.09 1019 10 16.0934 0 0
3:55 am 03:55 Partly Cloudy 46 7.5 41 4.8 83 83 SW 6 9 30.09 1019 10 16.0934 0 0
4:15 am 04:15 Partly Cloudy 46 8 39 4.1 77 77 SW 8 13 30.09 1019 10 16.0934 0 0
4:35 am 04:35 Clear 46 8 38 3.6 74 74 WSW 8 13 30.09 1019 10 16.0934 0 0
4:55 am 04:55 Clear 45 7.2 38 3.5 78 78 W 7 11 30.09 1019 10 16.0934 0 0
5:15 am 05:15 Clear 43 6.2 39 4 86 86 W 6 9 30.12 1020 10 16.0934 0 0
5:35 am 05:35 Clear 42 5.3 38 3.1 86 86 Calm 30.12 1020 10 16.0934 0 0
5:55 am 05:55 Clear 36 2 32 0.2 88 88 Calm 30.18 1022 10 16.0934 0 0
6:15 am 06:15 Clear 38 3.2 36 2.1 93 93 Calm 30.18 1022 10 16.0934 0 0
6:35 am 06:35 Clear 36 2.2 34 1 92 92 Calm 30.18 1022 10 16.0934 0 0
6:55 am 06:55 Clear 37 2.5 34 1.3 92 92 Calm 30.18 1022 10 16.0934 0 0
7:15 am 07:15 Partly Cloudy 38 3.4 37 2.5 94 94 W 5 7 30.21 1023 10 16.0934 0 0
7:35 am 07:35 Sunny 41 5.2 39 3.8 91 91 W 6 9 30.18 1022 10 16.0934 0 0
7:55 am 07:55 Sunny 42 5.8 36 2.3 78 78 WNW 8 13 30.18 1022 10 16.0934 0 0
8:15 am 08:15 Sunny 43 6 35 1.8 75 75 WNW 8 13 30.18 1022 10 16.0934 0 0
8:35 am 08:35 Sunny 43 6.3 35 1.6 72 72 NW 7 11 30.18 1022 10 16.0934 0 0
8:55 am 08:55 Sunny 46 7.6 36 2 68 68 NW 8 13 30.15 1021 10 16.0934 0 0
9:15 am 09:15 Sunny 47 8.6 35 1.5 61 61 NW 9 15 30.15 1021 10 16.0934 0 0
9:35 am 09:35 Sunny 49 9.2 35 1.5 59 59 NNW 10 17 30.15 1021 10 16.0934 0 0
9:55 am 09:55 Sunny 50 9.8 35 1.9 58 58 NNW 8 13 30.15 1021 10 16.0934 0 0
10:15 am 10:15 Sunny 51 10.4 35 1.6 55 55 NNW 10 17 30.12 1020 10 16.0934 0 0
10:35 am 10:35 Sunny 51 10.7 36 2.2 56 56 NNW 7 11 30.12 1020 10 16.0934 0 0
10:55 am 10:55 Sunny 53 11.4 36 2.4 54 54 NW 8 13 30.12 1020 10 16.0934 0 0
11:15 am 11:15 Sunny 53 11.8 37 2.5 53 53 NNW 6 9 30.12 1020 10 16.0934 0 0
11:35 am 11:35 Sunny 55 12.8 37 2.6 50 50 NW 5 7 30.12 1020 10 16.0934 0 0
11:55 am 11:55 Sunny 56 13.4 36 2.4 48 48 NW 8 13 30.12 1020 10 16.0934 0 0
12:15 pm 12:15 Sunny 57 14.1 36 2 44 44 Calm 30.09 1019 10 16.0934 0 0
12:35 pm 12:35 Sunny 58 14.6 35 1.8 42 42 NNW 3 6 30.09 1019 10 16.0934 0 0
12:55 pm 12:55 Sunny 59 15.2 33 0.3 36 36 Calm 30.09 1019 10 16.0934 0 0
1:15 pm 13:15 Sunny 60 15.6 32 0.2 35 35 WNW 6 9 30.09 1019 10 16.0934 0 0
1:35 pm 13:35 Sunny 60 15.8 32 -0.1 34 34 NNW 5 7 30.09 1019 10 16.0934 0 0
1:55 pm 13:55 Sunny 61 16.1 32 -0.1 33 33 WNW 3 6 30.06 1018 10 16.0934 0 0
2:15 pm 14:15 Sunny 62 16.7 31 -0.7 31 31 W 5 7 30.06 1018 10 16.0934 0 0
2:35 pm 14:35 Sunny 63 17 32 0 32 32 WNW 3 6 30.03 1017 10 16.0934 0 0
2:55 pm 14:55 Sunny 63 17.1 29 -1.7 28 28 Calm 30.03 1017 10 16.0934 0 0
3:15 pm 15:15 Sunny 63 17.2 29 -1.9 27 27 Calm 30.03 1017 10 16.0934 0 0
3:35 pm 15:35 Sunny 64 17.5 29 -1.5 28 28 WNW 3 6 30.03 1017 10 16.0934 0 0
3:55 pm 15:55 Sunny 63 17.3 27 -2.6 26 26 Calm 30.03 1017 10 16.0934 0 0
4:35 pm 16:35 Sunny 64 17.5 29 -1.4 28 28 Calm 30.03 1017 10 16.0934 0 0
4:55 pm 16:55 Sunny 64 17.6 29 -1.6 27 27 SW 3 6 30.03 1017 10 16.0934 0 0
5:15 pm 17:15 Sunny 64 17.7 30 -1.2 28 28 W 6 9 30.03 1017 10 16.0934 0 0
5:35 pm 17:35 Sunny 63 17.3 29 -1.7 28 28 Calm 30.03 1017 10 16.0934 0 0
5:55 pm 17:55 Sunny 63 17 29 -1.9 28 28 Calm 30.03 1017 10 16.0934 0 0
6:15 pm 18:15 Sunny 61 16 28 -2.1 29 29 W 3 6 30.06 1018 10 16.0934 0 0
6:35 pm 18:35 Sunny 60 15.6 28 -2 30 30 Calm 30.06 1018 10 16.0934 0 0
6:55 pm 18:55 Clear 58 14.4 29 -1.6 33 33 Calm 30.09 1019 10 16.0934 0 0
7:15 pm 19:15 Clear 55 12.7 28 -2 36 36 Calm 30.12 1020 7 11.26538 0 0
7:35 pm 19:35 Hazy 50 10.1 29 -1.8 44 44 Calm 30.15 1021 5 8.0467 0 0
7:55 pm 19:55 Clear 49 9.4 29 -1.9 45 45 Calm 30.15 1021 7 11.26538 0 0
8:15 pm 20:15 Clear 49 9.2 28 -2 46 46 Calm 30.15 1021 10 16.0934 0 0
8:35 pm 20:35 Clear 48 8.7 27 -2.6 45 45 S 5 7 30.15 1021 10 16.0934 0 0
8:55 pm 20:55 Clear 44 6.8 28 -2.4 52 52 S 6 9 30.18 1022 10 16.0934 0 0
9:15 pm 21:15 Clear 43 6.3 28 -2.5 54 54 SSE 3 6 30.18 1022 10 16.0934 0 0
9:35 pm 21:35 Clear 38 3.4 28 -2.5 66 66 SE 6 9 30.21 1023 10 16.0934 0 0
9:55 pm 21:55 Clear 39 4 29 -1.9 66 66 SE 6 9 30.18 1022 10 16.0934 0 0
10:15 pm 22:15 Clear 41 4.8 28 -2.5 60 60 SSE 5 7 30.18 1022 10 16.0934 0 0
10:35 pm 22:35 Clear 41 4.9 27 -2.7 58 58 SSE 5 7 30.18 1022 10 16.0934 0 0
10:55 pm 22:55 Clear 44 6.4 27 -2.6 53 53 SSE 5 7 30.18 1022 10 16.0934 0 0
11:15 pm 23:15 Clear 43 5.9 27 -2.6 55 55 SSE 5 7 30.18 1022 10 16.0934 0 0
11:35 pm 23:35 Clear 43 6 27 -2.7 54 54 S 5 7 30.18 1022 10 16.0934 0 0
11:55 pm 23:55 Clear 43 6.2 27 -2.8 53 53 S 7 11 30.18 1022 10 16.0934 0 0

Powered by AerisWeather